7 * 24
多渠道服务支持
STARLINK-37196(NORAD编号69163)是美国SpaceX公司星链(Starlink)星座的卫星之一,归属SpaceX的低轨互联网通信星座体系。星链计划旨在构建覆盖全球的天基高速互联网系统,该卫星作为二代星链组成部分,运行于近地轨道,为全球偏远地区、海洋等缺乏地面网络覆盖的区域提供宽带接入服务,支撑个人联网、物联网以及特殊场景通信需求,助力SpaceX完成全球低轨星座的组网布局,推动天基通信网络的覆盖能力提升。
美国
(US)
| 数据来源 | 国际轨道数据 |
| 星历时间: | 2026-06-12T14:43:44+0800 15小时前 查看轨道信息 |
| 半长轴: | 6713.891km |
| 偏心率: | 0.0001108 |
| 轨道倾角: | 53.158° |
| 近地点辐角 | 56.526° |
| 升交点赤经 | 176.302° |
| 平近点角 | 303.586° |
| 近地点: | 335.01km |
| 远地点: | 336.498km |
| 周期: | 91.248分钟 |
| 每日圈数: | 15.781251 |